Theta_e
312 312 312 312 312 312 312 312 312 312 312 312 312 312 312 313 313 314 316 318 321 322 324 325 325 325 326 327 328 328 327 326 325 324 323 320 317 318 318 319 319 318 315 312 311 308 303 298 298 301 302 303 301 299 297 296 295 295 295 294 294 294 294 294 294 293 293 293 293 293 293 292 292 292 292 292 292 292 292 292 292 291 291 290 290
311 312 312 312 312 312 312 312 312 312 312 312 312 313 313 313 314 315 317 319 321 323 324 325 325 325 325 325 327 329 329 327 325 323 321 319 319 319 319 321 321 317 312 310 309 304 299 298 299 301 303 302 300 298 296 295 295 295 294 294 294 294 294 294 293 293 293 293 293 293 292 292 292 292 292 292 292 292 292 292 292 291 291 290 290
311 311 311 312 311 311 311 311 311 311 311 311 311 312 313 313 314 316 317 319 321 323 324 325 325 324 324 325 326 327 328 327 325 323 319 319 320 321 321 322 319 313 310 309 305 300 298 298 300 302 303 301 299 297 295 295 295 294 294 294 294 294 294 293 293 293 293 293 292 292 292 292 292 292 292 292 292 292 292 292 292 291 291 290 290
312 312 312 312 312 312 312 312 312 311 311 311 310 311 311 312 314 315 317 319 321 323 324 324 325 325 325 327 327 326 327 327 325 323 320 319 321 321 322 321 316 310 310 307 302 298 298 299 301 303 302 299 297 296 295 295 294 294 294 294 294 294 293 293 293 293 293 293 292 292 292 292 292 292 292 292 292 292 292 291 291 291 291 290 289
312 311 312 312 312 312 312 312 312 312 312 311 311 310 311 311 312 313 315 318 320 322 323 324 325 324 325 327 327 326 327 327 326 324 321 320 320 320 319 317 312 309 308 303 298 297 298 299 301 301 300 298 296 295 295 294 294 294 294 294 294 293 293 293 293 292 292 292 292 292 292 292 292 292 292 292 292 292 291 291 291 291 291 290 289
311 311 311 312 312 312 312 312 312 312 312 312 311 311 310 310 311 311 313 316 319 321 323 324 325 325 324 325 325 326 326 326 326 324 322 320 320 319 315 312 310 309 305 299 297 297 297 298 299 299 298 297 295 295 294 294 294 294 294 293 293 293 293 293 292 292 292 292 292 291 291 291 291 291 291 291 291 291 291 291 291 291 290 290 290
311 311 311 311 311 312 312 312 312 312 312 312 312 311 310 310 310 311 312 314 317 320 322 323 324 325 325 324 325 326 326 326 324 323 321 320 320 318 314 310 309 306 301 297 296 296 297 298 298 297 296 295 295 294 294 294 294 294 293 293 293 293 293 292 292 292 292 292 291 291 291 291 291 291 291 291 291 291 291 291 291 290 290 290 289
311 311 311 311 311 311 312 312 312 313 313 312 312 311 311 310 310 310 311 311 314 318 321 321 322 323 323 323 324 325 325 325 324 322 321 320 319 317 312 309 307 302 297 296 296 296 297 298 297 296 295 295 294 294 294 294 293 293 293 293 293 293 292 292 292 292 291 291 291 291 291 291 291 291 291 291 291 291 290 290 290 290 290 289 288
311 311 311 311 311 311 311 312 312 312 313 312 312 311 310 310 310 310 310 310 312 316 318 319 320 322 323 323 323 324 324 324 324 323 321 320 318 315 310 307 302 298 296 296 296 297 297 297 297 296 295 294 294 294 293 293 293 293 293 293 293 292 292 292 292 291 291 291 291 291 291 291 291 291 291 291 291 290 290 290 290 290 290 289 288
312 311 311 311 311 311 311 311 312 312 313 313 312 311 310 310 309 309 309 309 310 314 317 318 320 322 323 323 324 324 324 324 322 321 320 318 317 314 310 305 300 296 296 296 296 297 297 297 296 295 294 294 294 293 293 293 293 293 293 292 292 292 292 292 291 291 291 291 290 290 290 290 290 290 290 290 290 290 289 289 289 289 289 289 289
312 311 312 311 311 311 311 311 311 312 313 313 312 312 311 309 309 309 311 311 311 315 318 319 320 322 322 322 322 323 324 323 321 319 318 318 317 314 310 305 299 296 296 296 296 297 297 296 295 294 294 294 293 293 293 293 293 292 292 292 292 292 292 291 291 291 290 290 290 290 290 290 290 290 290 290 289 289 289 288 288 288 288 288 288
311 311 311 311 311 311 311 311 311 312 312 313 313 312 311 310 309 310 313 315 315 317 319 318 318 319 320 321 321 322 322 321 319 318 318 318 318 314 310 306 300 296 296 296 296 296 296 295 294 294 294 293 293 293 292 292 292 292 292 292 293 293 292 291 291 290 290 290 290 290 290 290 289 289 289 289 289 289 288 288 287 287 287 286 287
311 311 311 311 311 311 311 311 311 312 312 313 312 312 311 310 309 310 314 317 319 320 320 320 319 318 319 321 321 321 321 320 319 318 318 319 317 312 309 305 299 296 296 295 295 295 295 294 294 293 293 293 293 292 292 292 292 292 293 293 293 293 292 291 290 290 290 290 289 289 289 289 289 289 289 289 288 288 288 287 287 286 286 286 286
311 311 311 311 311 311 311 311 311 311 312 312 312 312 311 310 309 310 313 316 317 318 318 319 320 320 320 321 321 320 319 319 319 318 319 318 315 311 307 303 297 295 295 295 295 295 294 294 294 293 293 292 292 292 292 291 292 293 294 294 294 293 292 291 290 290 289 289 289 289 289 289 289 288 288 288 288 287 287 287 286 286 286 286 286
311 311 311 311 311 311 311 311 310 311 311 312 312 311 311 311 310 310 311 313 315 316 316 316 317 319 320 320 320 319 319 319 318 318 318 317 313 309 305 300 295 295 295 294 294 294 294 293 293 293 292 292 292 292 291 291 292 294 295 295 294 293 292 291 290 289 289 289 289 289 288 288 288 288 288 287 287 287 287 286 286 286 286 286 286
311 310 310 310 311 311 311 311 311 310 310 311 311 311 311 311 311 311 311 312 314 316 317 317 317 318 318 318 318 318 318 317 317 316 317 315 311 307 302 297 294 294 294 294 294 293 293 293 292 292 292 292 291 291 291 292 294 295 295 295 294 293 292 290 289 289 289 289 288 288 288 288 288 288 287 287 287 287 286 286 286 285 285 285 285
311 311 311 311 311 311 311 310 310 310 310 310 311 311 311 310 310 311 311 312 313 314 316 317 317 317 317 316 316 316 316 315 315 315 315 313 309 304 299 295 294 294 294 293 293 293 292 292 292 292 291 291 291 290 291 293 295 296 296 295 294 293 291 289 289 288 288 288 288 288 288 287 287 287 287 286 286 286 286 286 285 285 285 285 285
311 311 311 311 311 311 310 310 310 310 310 310 310 310 310 310 309 310 310 311 312 313 314 314 315 315 314 314 314 314 313 313 313 313 314 311 306 300 296 294 294 294 294 293 293 292 292 292 291 291 291 291 290 290 293 295 296 297 296 295 294 292 290 289 288 288 288 288 287 287 287 287 287 286 286 286 286 286 285 285 285 285 285 285 285
310 311 310 311 310 310 310 310 310 310 310 310 310 309 310 309 309 309 309 309 309 310 310 311 311 311 311 311 310 310 311 312 312 312 312 308 302 297 294 293 293 294 293 293 293 292 292 291 291 291 291 290 290 291 294 296 297 297 297 296 294 291 289 288 288 288 287 287 287 287 287 287 286 286 286 286 286 285 285 285 285 285 285 285 285
310 310 310 310 310 310 310 310 310 309 309 309 309 309 309 309 309 309 308 308 308 308 308 308 308 308 308 308 309 310 311 311 311 311 309 305 299 294 293 293 293 293 293 293 292 292 292 291 291 291 290 290 290 292 295 297 298 298 297 296 293 290 288 288 288 287 287 287 287 287 287 286 286 286 285 285 285 285 285 285 285 285 285 285 284
310 310 309 309 309 309 309 309 309 309 309 309 309 309 309 309 309 308 308 308 307 307 307 307 307 307 308 308 309 310 310 311 310 309 307 302 297 293 293 293 293 293 293 293 292 292 292 291 291 290 290 290 291 293 297 298 299 298 297 295 291 289 288 288 287 287 287 287 287 287 286 286 286 285 285 285 285 285 285 285 284 284 284 284 284
309 309 309 309 309 309 309 309 309 309 309 309 309 309 309 309 309 308 308 308 307 307 306 306 306 306 307 308 308 309 309 309 308 307 305 300 295 293 293 293 293 292 292 292 292 291 291 291 290 290 290 290 291 295 298 299 299 299 297 293 291 289 288 287 287 287 286 286 286 286 286 285 285 285 285 285 284 284 284 284 284 284 284 284 284
309 309 309 309 309 309 309 309 309 310 309 309 309 309 309 308 308 308 308 308 307 306 306 305 305 305 305 306 307 307 307 307 306 305 303 298 293 292 292 292 292 292 292 292 291 291 291 290 290 289 289 290 293 297 299 298 298 298 296 292 290 289 288 287 287 286 286 286 286 286 285 285 285 284 284 284 284 284 284 284 284 284 284 284 283
309 309 309 309 309 309 309 309 309 309 309 309 309 309 309 308 308 308 308 307 307 306 306 305 305 304 304 304 305 306 306 305 304 303 301 296 292 291 292 292 292 292 291 291 291 290 290 290 289 289 289 291 295 298 299 298 298 297 294 292 290 289 288 287 287 286 286 286 286 286 285 285 284 284 284 284 284 284 284 284 284 284 284 283 283
309 309 309 309 309 308 308 308 308 308 308 309 308 308 308 308 308 307 307 307 307 306 306 306 305 304 304 304 304 305 305 304 303 302 300 295 292 291 291 291 291 291 291 291 290 290 289 289 288 288 289 292 296 299 298 298 298 296 293 292 290 289 288 287 286 286 286 286 286 285 285 284 284 284 283 283 283 283 283 283 283 284 283 283 283
308 309 308 308 308 308 308 308 308 308 308 308 308 308 308 308 307 307 307 307 306 306 306 305 305 305 304 304 304 304 304 304 303 302 299 295 292 291 291 291 291 291 291 290 290 289 289 288 288 288 289 293 297 298 298 298 297 295 294 293 291 289 287 287 287 287 286 285 285 285 284 284 283 283 283 283 283 283 283 283 283 283 283 283 283
308 308 308 308 307 307 307 307 307 307 307 307 307 307 307 307 307 307 307 306 306 306 305 305 305 304 304 303 303 303 303 303 302 302 299 295 292 291 291 291 291 290 290 290 290 289 289 288 288 288 290 294 296 297 297 297 296 295 295 294 292 289 287 287 288 288 286 285 285 285 284 283 283 283 283 283 283 283 283 283 283 283 283 283 283
308 308 307 307 307 307 307 307 307 307 307 307 307 307 306 306 306 306 306 306 305 305 305 304 304 303 302 302 302 301 302 302 302 302 300 297 294 292 291 291 291 291 290 290 290 289 288 288 287 288 290 294 296 297 297 297 297 296 296 294 292 289 288 288 289 288 286 285 285 284 284 283 283 282 282 282 282 282 282 282 282 282 283 283 283
307 307 307 307 307 307 307 307 306 306 306 306 306 306 305 305 305 305 305 305 304 304 304 303 303 302 301 300 300 299 300 300 300 300 299 297 295 292 291 291 291 290 290 290 289 289 288 288 288 288 290 294 297 298 298 298 297 296 295 294 292 290 289 289 289 287 286 285 285 285 284 283 283 282 282 282 282 282 282 282 282 282 282 282 282
307 307 307 306 307 306 306 306 306 305 305 305 305 305 305 304 304 304 304 304 303 303 302 302 302 301 300 300 299 298 298 298 297 296 295 294 293 292 290 290 290 289 289 289 288 288 288 288 288 288 290 294 298 299 299 298 297 296 295 294 292 291 290 290 288 286 286 286 285 285 284 284 283 283 282 282 282 281 282 282 282 282 282 282 282
306 306 306 306 306 306 306 305 305 305 305 304 304 304 304 303 303 303 302 302 302 302 301 301 301 300 300 299 298 298 297 296 295 294 293 292 291 290 290 289 289 289 288 288 288 288 288 287 288 288 289 294 298 299 298 297 296 296 295 293 292 291 290 289 288 287 287 286 286 285 285 285 284 283 282 281 281 281 281 281 281 281 282 282 282
306 306 306 306 305 305 305 305 304 304 304 304 303 303 303 303 303 302 301 301 301 301 301 301 300 300 299 299 298 298 297 295 294 293 292 291 290 289 289 288 288 288 287 287 287 287 287 287 287 287 289 293 297 298 297 297 296 295 294 292 292 291 290 288 287 287 287 286 286 286 286 286 285 283 282 281 281 281 281 281 281 281 281 281 281
305 305 305 305 305 304 304 304 304 303 303 303 303 303 303 302 302 302 302 301 301 301 301 300 300 299 299 298 298 297 296 295 293 292 291 291 290 289 288 287 287 286 286 286 287 287 287 287 287 287 287 291 295 297 296 296 296 294 293 292 291 291 289 287 286 286 286 286 286 286 286 286 285 283 282 281 281 281 280 281 281 281 281 281 281
305 304 304 304 303 303 303 302 302 302 302 302 302 301 301 301 302 301 302 301 301 301 300 300 299 298 298 297 297 296 295 293 292 291 290 290 289 288 287 287 286 285 285 286 286 286 287 286 287 287 286 288 292 294 295 295 294 293 291 291 290 289 287 285 285 285 285 285 285 286 285 285 284 283 282 281 281 280 280 280 280 280 281 281 280
302 302 302 301 301 300 300 300 300 300 299 299 299 299 299 300 300 300 300 300 300 300 300 299 299 298 297 297 296 296 294 293 292 291 290 289 289 288 287 286 286 285 285 285 285 286 286 286 286 286 286 287 290 292 293 294 293 292 290 290 289 288 286 285 285 285 285 285 285 285 285 284 283 282 281 281 280 280 280 280 280 280 280 280 280
299 299 299 298 298 298 298 298 297 297 297 297 297 297 297 297 297 297 297 297 297 298 298 298 298 298 297 297 296 295 294 293 292 291 290 290 289 287 286 286 286 285 285 285 285 285 286 286 286 286 285 286 287 290 292 293 292 291 290 289 288 287 286 285 285 284 284 284 284 284 284 283 282 282 281 281 280 280 280 280 280 280 280 280 279
297 297 296 296 296 296 296 296 296 296 296 295 295 295 295 295 295 295 295 295 295 295 295 295 296 296 296 296 296 295 294 293 292 292 291 290 289 288 287 287 286 285 285 285 285 285 285 285 285 285 285 285 286 287 290 291 291 290 289 288 288 287 286 285 284 283 283 283 283 283 283 282 281 281 281 280 280 280 279 279 279 279 279 279 279
296 295 295 295 295 295 295 295 295 295 295 294 294 294 294 294 294 294 293 293 293 293 293 293 293 294 294 294 294 294 294 293 292 292 291 291 289 288 288 287 287 286 286 286 285 285 285 285 285 285 285 285 285 285 287 289 290 290 288 288 288 287 286 285 284 283 282 282 283 283 282 281 281 281 281 280 280 279 279 279 279 279 279 279 279
295 294 294 294 294 294 294 294 294 294 293 293 293 293 293 293 292 292 292 292 292 292 292 292 292 292 292 292 293 293 293 293 293 293 292 291 290 289 288 287 286 286 285 285 285 284 284 285 285 284 284 284 284 284 285 287 289 289 288 288 287 287 286 285 284 283 282 282 282 282 282 281 281 280 280 280 279 279 279 279 278 279 279 278 278
294 293 293 293 293 293 293 293 292 292 292 292 292 291 291 291 290 290 290 290 290 290 290 290 290 290 290 290 291 291 291 292 292 292 292 291 291 290 288 288 287 287 286 285 284 283 283 283 283 283 283 284 284 284 284 286 287 288 287 287 287 287 286 286 284 283 282 282 282 282 281 281 280 280 280 279 279 278 278 278 278 278 278 278 278
292 292 291 291 291 291 290 290 290 290 290 290 289 289 289 289 289 289 288 288 288 288 288 288 288 288 288 288 288 289 289 290 290 290 291 291 290 290 289 288 287 287 286 285 283 282 282 282 282 283 283 283 283 283 284 284 285 286 286 286 286 286 285 285 283 282 281 281 281 281 280 280 280 280 279 279 278 278 278 278 278 278 278 278 277
290 290 290 289 289 289 289 289 289 288 288 288 288 288 288 288 288 288 288 288 288 288 288 288 288 287 287 287 287 287 287 288 288 288 288 289 289 289 289 289 288 286 285 284 283 281 281 281 282 282 282 282 282 282 283 283 283 284 285 285 284 284 284 284 283 281 281 280 280 280 280 279 279 279 279 278 278 277 277 277 277 277 277 277 277
289 289 288 288 288 288 288 288 288 288 288 288 287 287 287 287 287 287 287 287 287 287 287 287 287 287 287 287 287 287 287 287 287 287 287 287 287 288 288 288 288 286 285 284 283 282 281 280 280 280 281 281 281 281 281 281 282 282 282 283 283 283 283 283 282 281 280 280 280 280 280 279 279 278 278 277 277 277 277 277 277 277 277 277 277
288 288 288 288 287 287 287 287 287 287 287 287 287 287 287 287 287 287 287 287 287 287 287 287 287 287 287 286 286 286 286 286 286 286 286 286 286 286 286 287 287 286 286 285 284 283 281 280 279 279 279 279 280 280 280 280 280 281 281 281 281 282 282 282 282 281 280 280 280 280 279 279 278 278 277 277 277 276 276 276 276 276 276 276 277
287 287 287 287 287 287 287 287 287 286 286 286 286 286 286 286 286 286 286 286 286 286 286 286 286 286 286 286 286 286 286 286 286 286 286 286 286 286 286 286 286 285 285 285 284 283 282 281 280 279 279 279 278 278 278 279 279 279 280 280 280 281 282 281 281 280 280 279 279 279 279 278 278 277 277 276 276 276 275 275 275 275 275 276 276
286 286 286 286 286 286 286 286 286 286 286 286 286 286 286 286 285 285 285 285 285 285 285 285 285 285 285 285 285 285 285 285 285 285 285 285 285 285 285 285 285 285 285 284 284 283 282 282 281 280 279 279 278 278 278 278 278 278 278 279 279 280 281 280 279 279 279 279 278 278 278 277 277 277 276 276 275 275 275 274 274 275 274 275 275
286 286 286 286 285 285 285 285 285 285 285 285 285 285 285 285 285 285 285 285 285 285 285 285 285 285 285 285 284 284 284 284 284 284 284 284 284 284 284 284 284 284 284 284 283 282 282 282 281 280 279 279 278 278 278 277 277 277 278 278 278 279 279 279 278 278 278 278 278 277 277 277 276 276 276 275 275 274 274 274 274 274 274 274 274
285 285 285 285 285 285 285 285 285 285 285 285 285 285 285 285 285 285 285 285 285 285 284 284 284 284 284 284 284 284 283 283 283 283 283 283 283 283 283 283 283 283 283 283 283 282 281 281 281 280 279 279 278 277 277 277 277 277 277 277 277 278 278 278 277 277 277 277 277 277 276 276 276 275 275 275 274 274 274 273 273 273 273 273 273
285 285 285 285 285 285 285 285 285 285 285 285 285 285 285 285 285 285 284 284 284 284 284 284 283 283 283 283 283 283 282 282 282 282 282 282 282 281 281 281 281 281 281 282 282 281 281 281 280 280 279 279 278 277 277 276 276 276 276 276 276 277 277 277 276 277 277 277 276 276 276 275 275 275 274 274 274 274 273 273 273 272 272 272 272
285 285 285 285 285 285 285 285 285 285 284 284 284 284 284 284 284 284 284 283 283 283 283 282 282 282 282 281 281 281 281 281 281 281 280 280 280 280 280 280 280 280 280 280 280 280 280 280 279 279 279 278 277 276 276 276 275 275 275 275 276 277 277 276 276 276 276 276 276 276 275 275 275 274 274 274 273 273 273 272 272 272 272 271 271
285 285 285 285 284 284 284 284 284 284 284 284 284 283 283 283 283 283 282 282 282 281 281 281 281 280 280 280 280 279 279 279 279 279 279 279 279 279 279 279 279 279 279 279 279 279 278 278 278 277 277 276 276 276 275 275 275 275 275 275 276 276 276 275 275 275 275 275 275 275 275 274 274 274 273 273 273 273 273 272 272 271 271 271 271
Wind_Speed
15 16 17 19 21 22 24 26 27 29 30 31 32 33 33 34 34 33 31 30 30 30 30 30 30 29 29 29 30 32 33 30 27 28 30 30 30 31 32 33 31 30 28 27 27 28 28 27 25 23 21 18 16 15 14 13 13 12 11 10 10 11 11 12 13 12 13 14 16 18 20 22 23 25 27 28 29 31 31 31 32 32 32 34 35
13 14 15 17 18 19 21 23 25 27 28 29 30 31 32 33 33 33 32 32 31 30 31 30 29 29 29 29 29 32 34 31 28 27 28 29 31 32 33 33 32 31 29 28 29 30 29 27 25 23 20 18 17 16 15 14 13 12 12 11 11 11 12 12 13 14 15 15 16 18 20 22 23 25 26 28 30 31 31 31 31 31 32 33 35
11 12 13 14 15 16 18 19 21 23 25 27 28 29 30 30 31 32 32 32 31 31 31 29 29 29 29 30 29 30 34 33 27 25 26 28 32 34 33 33 32 30 30 30 31 31 29 27 25 22 20 19 18 17 15 14 14 13 12 12 12 12 12 13 14 15 16 16 17 18 20 21 23 25 26 28 29 30 31 31 31 31 31 33 35
10 11 12 12 13 14 16 17 18 19 21 23 24 26 27 28 29 30 30 30 30 30 29 28 29 28 28 30 30 30 34 34 28 26 25 27 32 35 34 33 31 30 31 32 31 30 28 26 24 22 21 19 18 17 16 15 14 13 13 13 13 12 12 13 14 15 16 17 18 19 20 22 23 25 26 28 29 30 31 31 31 31 31 32 34
9 10 11 12 13 14 15 15 17 18 18 20 21 22 24 26 28 29 29 30 29 28 28 27 28 30 29 30 32 33 35 36 32 30 27 27 31 32 33 33 31 32 33 32 30 28 26 25 23 22 21 19 18 17 16 15 14 14 14 13 13 13 13 13 14 15 16 18 19 19 21 22 23 24 26 28 29 30 31 31 31 31 31 31 33
9 10 12 12 13 14 14 15 16 17 18 18 19 21 22 24 26 27 28 28 28 27 27 27 28 29 29 30 32 34 36 37 35 30 26 27 29 28 29 31 32 33 33 31 29 28 26 25 23 22 21 19 18 17 17 16 15 15 14 14 13 13 14 14 14 15 16 18 19 20 21 22 23 24 26 27 29 30 31 31 31 32 32 32 32
10 11 12 13 14 14 15 16 17 18 18 19 19 20 22 23 25 26 27 28 27 27 27 28 28 29 30 30 31 35 39 38 34 28 25 27 29 28 29 32 32 33 32 30 29 28 26 24 23 22 21 20 19 18 17 17 16 15 14 14 14 14 14 14 14 15 17 18 19 20 21 22 23 25 26 27 28 29 31 32 32 32 33 33 33
12 13 13 14 14 15 16 17 18 18 18 19 19 20 21 22 24 25 26 27 27 26 27 28 28 29 30 31 30 33 38 38 32 28 26 28 28 28 29 32 32 32 31 30 29 28 26 25 24 23 22 20 19 19 18 17 16 15 14 14 14 14 14 14 14 15 17 18 19 20 21 22 24 25 26 27 28 28 29 31 32 33 33 33 33
14 14 14 14 15 16 17 18 19 19 19 19 19 19 20 21 22 23 24 25 25 25 26 27 28 29 30 32 33 32 33 36 34 30 28 28 26 25 29 32 31 31 31 30 30 28 27 26 25 24 22 21 20 19 18 17 16 15 15 14 14 14 14 14 15 16 17 18 19 20 21 22 24 25 26 27 27 28 28 29 31 32 33 33 32
15 14 14 15 16 17 17 18 19 19 19 18 18 18 19 20 20 20 19 21 22 23 24 25 26 28 28 31 33 30 31 35 34 27 25 25 24 24 29 32 31 31 31 31 30 29 28 27 26 24 22 21 21 20 19 17 17 16 15 14 14 14 14 14 15 16 17 18 19 20 21 22 23 25 25 26 26 26 27 28 30 31 32 34 34
16 17 17 17 18 18 18 19 19 19 19 18 18 17 17 18 18 17 16 17 19 21 23 24 26 26 24 24 26 28 30 34 29 22 23 23 22 25 30 33 34 33 32 31 31 30 29 28 26 24 23 23 22 21 19 18 17 16 15 15 14 14 14 15 16 17 18 18 19 20 21 22 23 23 24 25 25 25 26 27 28 30 31 32 34
19 20 20 19 20 19 19 19 19 19 18 18 17 17 17 17 17 17 17 17 18 19 21 23 25 25 23 22 24 27 32 32 25 21 22 23 23 26 30 34 35 34 33 33 32 30 29 27 26 25 24 24 22 21 19 18 17 16 16 15 14 14 15 16 17 18 18 18 19 20 21 22 22 22 23 24 24 24 25 25 26 28 28 29 31
20 20 20 20 20 20 20 19 19 18 18 17 17 17 16 16 16 17 18 18 19 20 21 21 23 25 25 24 24 28 32 30 23 23 24 24 26 28 31 34 35 35 34 33 32 31 29 28 26 26 26 24 22 21 19 18 18 17 16 15 14 14 15 17 18 19 19 19 19 20 21 21 21 21 22 23 23 24 24 24 25 26 27 27 29
20 20 20 20 19 19 19 19 18 18 18 18 17 17 16 16 16 17 18 19 20 20 20 20 21 24 26 26 25 27 30 28 25 26 26 26 28 30 33 35 36 35 34 33 32 31 29 28 27 27 26 24 22 21 20 19 18 17 16 15 14 15 16 18 19 19 19 19 19 19 20 21 21 21 21 21 22 23 23 23 24 25 26 27 27
21 20 19 18 18 18 18 18 17 17 17 18 18 17 17 16 16 16 18 19 19 19 19 19 19 20 21 23 24 26 29 29 28 27 27 27 30 33 35 37 36 35 34 32 31 30 29 28 28 27 25 23 22 21 20 19 18 17 16 15 15 16 17 19 20 20 20 20 20 20 20 20 21 20 20 21 21 21 21 22 23 25 26 27 27
20 19 18 17 17 17 18 18 18 18 17 17 18 18 18 17 16 16 17 18 19 20 21 21 21 21 22 23 25 28 29 29 28 28 28 29 32 35 37 37 36 35 34 32 32 31 30 29 28 26 25 23 22 21 20 19 18 17 16 15 16 17 18 19 20 21 20 20 20 20 20 20 20 20 20 20 20 20 20 20 22 24 26 27 27
20 19 18 17 17 17 18 18 18 19 19 18 17 17 17 17 17 17 17 18 19 19 20 21 22 23 24 25 27 30 32 32 31 31 30 31 34 37 38 38 37 36 35 34 33 32 31 30 28 26 25 24 23 21 20 20 18 17 16 16 17 17 18 20 21 21 21 21 20 20 20 20 20 19 19 19 20 20 20 21 22 24 25 27 28
20 19 18 18 18 18 19 19 19 19 19 19 18 17 17 17 17 17 18 19 19 20 21 23 24 25 28 30 32 35 36 35 33 32 31 32 36 38 38 39 38 37 36 35 34 33 31 30 28 27 26 24 22 21 21 20 19 18 17 17 18 17 18 20 21 22 22 21 21 20 20 20 19 19 19 19 18 18 20 21 22 23 25 26 27
18 19 18 18 18 18 18 18 18 18 17 17 17 16 17 17 17 17 18 19 20 22 24 25 28 30 32 33 34 35 34 31 29 30 31 33 37 39 39 39 39 38 37 36 34 33 31 30 29 28 27 25 23 22 22 21 20 19 19 19 18 17 18 20 21 22 22 22 21 21 21 20 20 19 19 19 18 17 19 21 22 23 25 26 26
17 16 15 13 13 12 13 13 14 15 15 14 15 15 15 16 17 17 19 20 22 23 25 27 29 31 32 31 30 30 29 27 27 28 31 35 38 40 40 39 39 37 37 36 34 33 32 31 30 29 27 25 24 24 23 22 21 21 21 20 18 17 18 20 22 23 22 22 22 21 21 21 20 20 19 18 17 18 19 20 21 22 24 25 25
9 7 6 4 5 6 7 9 10 12 13 14 14 15 15 15 16 16 18 20 22 24 25 27 29 30 29 27 26 26 26 26 27 29 32 36 39 40 40 39 38 37 36 35 34 34 33 32 31 29 28 27 26 26 24 23 22 22 22 20 17 17 19 21 22 23 22 22 22 22 22 22 21 20 19 18 18 19 19 20 21 21 22 24 25
5 4 3 2 2 4 5 7 9 11 12 14 15 16 16 16 17 17 18 19 20 22 23 24 25 26 25 24 25 26 26 27 28 30 33 36 39 40 40 39 38 37 37 35 34 34 33 32 30 29 28 28 27 26 25 24 24 24 23 20 18 18 20 22 23 23 23 23 23 23 22 22 21 20 19 19 19 20 20 20 20 20 21 22 24
5 4 2 1 1 3 4 6 8 10 12 14 15 16 17 18 18 19 19 20 20 20 21 22 22 23 24 25 26 27 28 29 30 32 34 37 39 40 40 40 39 38 37 36 34 33 32 30 30 29 29 29 28 27 26 26 26 25 23 21 19 18 20 22 23 24 24 23 23 23 22 22 21 20 20 20 21 21 21 21 20 20 20 21 22
6 4 3 2 1 1 3 4 6 8 10 12 14 16 17 18 19 20 20 21 21 21 21 22 22 23 24 26 27 28 30 31 32 33 36 38 39 40 40 40 39 38 38 37 35 33 32 30 29 30 30 30 29 28 28 28 28 26 24 23 21 19 21 23 24 24 24 24 23 23 23 22 21 20 20 21 21 22 22 21 21 20 20 20 21
7 6 5 4 3 3 3 4 5 7 8 11 12 14 16 17 19 20 20 21 22 22 22 22 22 23 24 25 27 28 30 32 33 34 36 38 40 40 40 40 40 39 38 37 36 34 33 31 30 30 31 31 30 31 31 31 29 27 25 24 22 21 22 23 24 25 25 24 24 24 23 22 22 21 21 22 22 22 22 21 21 21 21 20 20
8 7 7 6 5 5 5 5 6 7 8 9 10 11 13 15 16 18 19 20 21 22 22 22 22 23 24 24 26 27 29 31 33 34 36 39 41 41 41 41 40 40 39 39 37 36 34 33 33 33 34 34 34 34 33 31 29 28 28 27 24 22 23 24 24 25 26 26 25 25 24 23 22 22 22 22 22 22 22 22 21 22 22 21 20
8 8 7 7 6 6 6 6 6 7 7 8 9 10 11 12 14 16 17 19 20 20 20 21 21 21 23 23 25 26 28 30 32 34 37 40 41 42 42 42 42 42 41 40 39 38 37 36 36 37 36 36 36 35 33 32 31 31 30 27 25 24 25 26 26 26 27 27 26 25 24 23 22 23 23 23 22 22 22 22 22 22 22 22 20
8 8 7 7 6 6 6 6 6 7 7 8 9 10 11 12 13 15 15 17 18 18 19 20 20 20 21 22 23 26 28 30 31 32 35 38 40 42 43 44 44 44 43 42 41 41 40 40 40 40 40 39 39 37 35 34 34 33 30 28 26 27 28 28 27 27 27 27 26 25 24 23 23 23 23 23 22 22 22 22 22 23 22 22 22
8 8 8 7 7 7 7 7 7 7 8 9 10 11 11 12 13 14 15 16 17 18 18 20 20 20 21 21 23 25 28 28 27 28 32 36 39 42 44 45 45 44 44 43 43 43 43 43 43 43 43 43 41 39 36 36 35 34 31 29 28 29 30 29 28 27 27 27 27 26 25 24 24 24 24 23 22 21 21 22 22 23 23 22 22
9 9 9 8 8 8 8 8 8 9 9 10 11 11 12 13 13 14 15 15 16 17 18 19 20 20 21 22 23 24 26 26 25 27 31 35 38 41 43 45 45 45 45 45 45 45 46 45 45 46 46 45 43 41 39 38 37 34 32 30 31 31 31 30 28 27 27 27 27 26 25 25 25 25 25 24 22 21 21 21 22 23 23 23 22
10 10 10 10 9 9 9 9 10 10 11 11 12 13 13 13 14 14 15 16 16 17 18 19 20 21 22 23 23 23 24 26 26 27 30 33 36 39 41 43 45 45 45 46 47 48 48 48 48 48 48 47 45 43 41 40 38 35 33 33 33 32 32 31 30 29 28 27 27 27 26 26 26 26 25 24 22 21 21 21 22 23 23 23 22
10 10 10 9 9 9 10 10 11 12 12 13 14 15 16 16 15 15 15 17 18 18 19 20 21 22 23 23 24 24 24 25 26 28 29 31 33 36 38 41 43 45 45 47 48 49 49 50 51 51 51 50 49 46 44 42 40 37 35 35 34 33 33 32 31 29 28 28 28 28 27 27 27 27 26 24 23 22 21 20 21 22 23 23 22
10 10 9 9 8 9 9 10 11 12 13 14 15 16 17 18 18 18 17 18 18 19 20 21 21 22 23 23 24 24 24 24 25 27 28 30 31 33 36 39 41 42 44 47 50 51 51 53 54 54 54 53 51 47 45 43 41 39 37 36 35 34 33 32 31 30 30 30 29 29 28 28 28 27 26 25 24 22 22 21 21 22 22 22 21
9 9 8 7 7 7 8 9 10 11 12 13 14 16 17 18 19 20 21 21 21 20 21 21 22 22 23 24 24 24 24 24 25 26 27 29 30 32 34 37 39 41 44 48 51 53 53 54 56 56 56 55 52 48 46 44 43 41 40 38 36 35 34 34 33 32 31 31 30 30 30 29 28 27 26 25 24 23 22 21 21 21 21 21 20
6 6 5 6 6 7 8 9 10 11 12 13 14 16 17 18 20 21 22 23 24 24 24 24 24 24 24 24 25 25 25 26 26 26 26 28 29 30 33 37 40 42 45 49 52 54 55 55 56 57 57 56 54 51 48 47 45 43 41 39 37 36 35 35 36 35 33 33 32 31 31 30 28 27 26 25 25 24 22 21 21 21 20 20 20
4 4 5 6 7 8 9 10 12 13 14 15 16 17 18 19 21 22 22 23 24 25 25 25 26 27 26 26 25 26 26 26 26 26 27 27 27 29 34 38 41 43 46 49 51 53 55 55 55 56 57 57 56 54 51 48 46 44 42 40 38 36 36 36 37 36 35 34 33 32 32 31 29 28 27 26 25 24 23 22 21 21 20 20 20
5 6 7 8 9 10 11 12 14 15 16 17 18 19 20 20 21 22 22 23 23 24 24 25 25 26 26 26 26 26 25 26 26 27 27 27 27 29 34 38 40 43 46 48 49 51 53 54 54 54 56 58 58 56 53 50 46 44 44 42 39 38 37 37 37 37 36 35 34 33 33 32 30 28 28 27 26 25 23 22 21 21 20 19 19
7 8 9 10 11 12 13 14 15 16 16 17 18 19 20 20 21 22 22 22 23 23 24 24 24 25 25 25 25 26 26 26 27 27 28 28 29 31 34 36 38 41 44 46 48 49 52 53 53 53 54 56 56 56 55 52 48 46 45 43 41 40 39 38 38 38 38 37 36 35 34 33 31 30 29 27 26 25 23 22 22 21 20 19 19
8 9 10 11 11 12 13 14 14 15 15 16 17 18 18 19 19 20 21 22 22 22 23 23 23 23 23 24 25 25 26 27 28 28 29 29 30 31 33 35 37 39 41 43 45 46 48 50 51 52 53 54 54 53 53 51 48 46 45 45 43 41 41 40 40 40 40 40 39 36 35 34 32 31 29 28 26 25 24 23 22 21 21 20 19
9 10 10 11 11 12 12 13 13 14 14 15 15 16 16 17 18 19 19 20 21 22 23 23 23 23 23 23 24 25 26 27 28 28 29 31 31 32 33 34 37 38 39 40 42 43 44 46 48 49 51 51 51 51 51 50 48 45 45 45 45 43 42 41 41 41 42 41 39 37 35 34 33 31 30 29 27 25 24 23 22 22 21 20 19
9 10 10 10 11 11 11 11 11 12 12 13 14 14 15 16 17 18 19 21 22 22 23 24 24 24 24 25 25 25 26 27 28 28 29 30 31 32 33 35 36 38 39 39 39 40 42 44 45 46 47 48 48 48 49 49 48 46 45 45 45 44 43 43 43 43 42 41 39 37 35 34 33 32 30 28 27 26 25 24 23 22 21 21 20
8 9 9 10 10 10 10 11 11 12 12 13 14 15 16 17 18 20 21 22 23 24 25 26 26 26 27 27 27 28 28 29 29 30 30 30 31 32 33 34 35 36 38 38 39 40 42 43 44 45 46 46 46 46 46 47 46 45 45 46 45 45 45 45 44 44 43 41 39 37 36 35 34 32 30 29 28 27 26 24 23 23 22 21 20
8 9 9 10 11 11 12 13 13 14 15 15 16 17 18 19 20 22 23 24 25 26 27 28 29 29 29 30 30 31 32 32 32 32 32 32 32 32 33 33 34 34 35 37 38 39 40 40 42 44 45 45 45 45 45 44 44 44 44 45 45 45 46 46 45 45 44 41 40 38 37 36 34 32 30 30 29 27 26 25 24 23 23 22 21
9 9 10 11 12 13 14 15 16 16 17 18 18 19 20 21 23 24 25 26 27 28 29 30 30 31 32 32 32 33 33 34 34 34 34 34 35 35 35 35 35 35 35 36 37 38 38 37 39 42 44 44 45 45 44 44 43 44 44 44 44 44 46 46 46 45 43 41 40 39 37 35 33 32 31 31 29 28 27 26 25 24 24 23 22
10 11 12 13 14 15 16 17 17 18 19 20 21 22 23 24 25 26 27 28 29 30 31 32 32 33 34 34 34 35 35 35 36 36 36 36 37 37 37 37 37 37 36 36 36 37 38 37 37 39 42 44 44 44 43 42 41 42 43 43 43 43 43 44 44 42 41 40 39 38 36 34 33 32 32 30 29 28 27 26 25 25 24 24 23
13 13 14 15 16 17 18 19 20 21 22 23 24 25 26 27 28 29 30 31 32 33 34 35 35 36 36 37 37 37 37 37 38 38 38 38 38 38 38 39 38 38 38 38 36 36 38 38 38 39 41 42 43 43 42 40 39 39 40 41 40 40 40 40 41 40 39 38 37 36 36 34 33 32 32 30 30 29 27 27 26 26 25 24 24
15 16 17 18 19 20 21 22 23 24 25 26 27 28 29 30 31 32 34 35 35 36 37 38 38 39 39 39 39 39 39 40 40 40 40 40 40 39 39 40 40 39 39 39 38 37 37 39 39 40 40 40 40 41 41 40 38 38 38 39 38 37 38 40 41 39 38 37 36 35 36 35 34 33 32 31 30 29 28 27 27 27 26 25 25
17 19 20 21 22 23 24 25 26 27 28 29 30 31 32 33 34 35 36 37 38 39 39 40 40 41 41 41 41 41 41 41 41 41 41 41 41 40 40 40 41 41 41 40 39 38 38 38 39 39 40 40 39 40 40 39 37 36 37 37 35 34 36 39 40 39 38 38 37 36 37 36 34 33 32 31 30 29 28 28 27 27 27 27 26
20 21 22 24 25 26 27 28 29 30 31 32 33 34 35 36 37 38 38 39 39 40 40 41 41 41 41 41 41 41 41 41 41 41 40 40 40 40 40 40 40 41 41 41 40 39 38 38 39 38 38 39 39 39 39 38 36 35 35 34 32 31 33 36 38 39 38 38 37 37 37 36 34 32 32 31 30 29 29 28 28 28 28 28 27
22 24 25 26 27 29 30 31 31 32 33 34 35 36 36 37 38 38 39 39 40 40 40 40 40 40 41 41 40 40 40 40 40 40 40 40 40 39 39 39 39 39 39 39 39 38 38 38 38 38 37 36 36 37 37 37 35 34 32 31 30 29 31 34 37 38 37 37 37 36 35 34 33 32 32 31 30 30 30 29 28 29 29 29 28
25 26 27 29 30 30 31 32 33 33 34 35 35 36 36 37 37 38 38 38 38 39 39 39 39 39 38 38 38 38 38 38 39 39 39 39 39 39 38 37 36 36 36 36 36 36 36 36 36 36 36 35 34 34 35 35 34 32 29 28 28 29 30 33 36 37 36 35 36 35 34 34 33 32 31 31 30 30 30 29 29 29 29 29 29
Wind_Direction
259 258 255 254 254 255 255 256 258 259 260 261 261 261 260 260 260 258 256 253 251 249 246 244 242 239 237 237 242 244 239 241 248 245 244 249 248 246 246 247 253 255 246 230 213 204 203 204 204 206 209 214 218 223 228 234 240 246 254 264 274 284 294 303 311 317 320 322 324 325 326 329 332 334 335 335 336 339 342 345 347 349 350 350 350
259 257 256 256 257 258 258 259 260 260 261 261 261 261 260 259 259 257 254 251 247 246 244 241 240 239 238 236 241 243 238 239 247 247 246 249 246 244 245 248 255 252 235 216 205 203 202 203 204 207 211 215 220 225 229 234 241 248 256 266 273 282 293 302 308 313 317 320 322 323 326 329 329 331 333 334 335 338 340 342 344 346 349 350 350
264 263 263 262 262 262 260 261 261 260 261 260 259 259 258 257 257 255 252 249 247 245 243 241 238 238 239 238 239 241 238 236 241 249 253 250 241 239 244 252 255 244 222 208 205 204 203 203 206 209 213 217 222 226 231 235 242 249 257 266 273 281 292 301 306 310 313 317 319 323 325 326 327 329 332 334 335 336 338 339 341 344 349 351 350
271 271 272 269 268 267 265 265 264 262 262 262 260 259 258 257 256 254 252 249 247 244 242 241 238 237 239 239 240 242 239 234 242 256 259 250 241 242 250 256 250 231 215 208 207 205 205 206 208 212 216 220 223 228 233 237 243 250 256 264 272 282 292 298 303 306 310 314 318 322 323 323 327 329 332 334 334 334 335 336 338 342 348 352 351
272 271 270 270 268 267 267 265 264 263 262 261 261 259 257 256 255 254 253 249 246 244 241 239 238 238 238 239 241 244 240 237 243 253 255 247 245 251 255 251 239 221 211 209 207 206 207 209 212 216 219 223 226 230 235 239 244 250 256 264 272 282 290 295 299 303 307 312 316 319 321 323 328 330 332 333 333 332 333 334 337 341 345 350 352
270 269 267 269 269 268 269 268 267 266 262 260 259 258 256 255 253 252 251 248 245 241 238 238 239 240 240 241 244 244 241 239 239 241 243 243 247 258 253 238 225 215 209 208 207 206 209 212 215 220 223 226 229 232 237 241 245 250 256 264 272 281 288 292 296 301 306 311 314 317 320 324 328 329 331 332 331 331 331 332 337 341 343 348 352
266 269 269 270 272 271 272 271 270 268 266 263 260 257 256 254 252 251 249 246 243 238 236 237 238 240 241 242 246 246 241 237 233 229 235 245 254 260 247 227 216 212 208 207 207 208 211 214 218 223 226 228 230 234 238 242 247 252 256 264 272 279 285 289 294 301 306 309 311 315 321 324 326 327 329 330 330 331 331 332 336 339 343 348 351
268 270 272 273 274 275 274 274 273 273 272 269 265 262 259 255 253 252 249 246 242 238 238 238 238 241 243 242 248 249 240 234 230 228 239 253 260 255 236 220 213 210 209 208 209 211 213 217 221 225 227 229 232 236 240 243 248 252 257 265 271 277 283 288 296 302 304 306 310 315 320 322 323 324 326 328 328 330 331 332 334 337 342 348 352
270 270 274 276 277 278 276 275 275 276 277 275 273 269 264 260 257 253 250 247 242 238 239 238 238 241 244 245 248 247 239 232 229 231 243 255 259 247 227 217 213 211 211 212 213 214 216 220 224 227 229 231 233 236 240 243 247 252 257 263 269 276 283 290 297 301 303 306 310 314 318 320 321 322 324 326 328 329 331 332 334 338 340 344 350
271 274 278 280 280 279 278 276 275 275 277 278 276 273 268 264 259 253 250 245 238 235 236 237 241 244 247 249 245 241 238 232 226 233 248 255 256 244 226 216 214 213 214 215 216 218 220 223 226 228 230 231 234 236 238 241 246 251 256 261 268 276 284 292 298 300 303 306 309 313 315 317 319 321 323 325 327 328 330 332 334 338 340 341 346
274 278 280 279 279 279 278 277 275 275 276 276 276 273 269 265 257 249 245 240 234 233 235 238 243 246 249 248 240 237 239 232 227 242 255 253 251 242 226 217 215 215 216 217 220 222 224 226 228 229 230 232 234 235 237 240 244 249 254 260 267 277 286 294 298 300 303 305 308 311 313 315 317 319 320 322 325 327 329 333 336 338 341 343 344
276 277 276 275 274 275 276 276 276 276 276 275 273 270 265 261 253 246 242 237 233 235 239 241 242 243 244 243 241 241 237 229 233 254 258 253 252 241 225 219 217 217 217 218 221 224 227 229 230 230 232 233 234 235 236 240 243 246 252 258 268 280 289 295 298 300 302 303 306 308 310 313 314 316 318 320 323 325 328 334 336 337 341 342 341
276 274 273 271 270 272 273 275 277 277 278 277 273 269 266 260 253 246 241 239 238 240 243 245 242 241 240 243 247 243 232 228 245 261 257 255 251 236 223 220 220 220 221 221 223 226 229 230 231 232 234 234 233 234 236 238 241 245 252 261 272 284 291 296 297 298 300 301 303 305 307 309 310 312 316 318 321 324 327 333 335 334 337 338 338
275 272 269 268 267 269 272 273 275 275 275 275 272 269 266 260 253 247 241 239 240 242 245 246 244 241 237 238 244 238 229 236 257 263 257 254 246 231 222 220 221 223 224 224 227 229 231 232 233 234 235 234 233 235 235 237 241 247 254 264 276 285 291 295 296 296 297 298 300 302 303 305 307 309 314 316 319 323 327 331 332 331 332 332 334
274 270 267 267 268 271 274 275 276 276 274 274 273 270 266 262 256 250 244 240 240 242 245 245 246 246 240 238 239 236 236 247 257 258 257 253 240 227 220 219 222 224 225 227 230 232 234 235 235 235 234 233 234 234 234 236 242 249 257 266 277 284 290 294 295 294 295 295 297 300 300 302 304 307 312 314 316 320 326 329 329 326 326 327 331
271 268 267 268 270 271 275 277 279 280 277 274 274 271 268 265 260 255 250 245 242 242 243 243 244 246 244 241 240 241 244 250 254 257 258 251 236 224 220 220 222 224 225 228 230 232 234 234 234 234 233 233 233 232 233 238 244 251 260 268 276 283 290 293 293 292 292 293 295 297 298 299 302 305 309 311 313 318 323 325 323 321 321 324 328
265 266 267 269 270 270 272 274 275 276 277 276 274 272 269 265 260 256 253 251 248 246 246 246 244 243 242 243 245 247 250 254 257 260 257 246 232 223 220 221 223 224 226 228 231 232 233 233 234 234 234 233 232 231 235 241 246 254 262 268 275 283 289 292 291 289 290 292 293 294 295 297 299 303 306 307 311 316 320 321 319 318 319 322 325
263 264 264 264 264 264 264 266 267 269 273 277 279 277 274 269 264 259 255 253 251 250 249 248 247 247 248 251 253 256 257 258 258 256 250 239 228 223 222 223 225 226 228 229 232 234 234 234 235 235 235 233 231 232 238 243 248 256 262 268 274 282 288 289 288 287 288 289 290 291 292 295 297 299 301 304 309 314 315 315 314 314 315 319 321
256 257 258 258 261 264 266 269 272 273 275 280 282 282 280 276 271 266 262 260 257 255 254 253 253 254 255 257 259 259 258 254 250 246 241 233 225 223 223 225 227 229 231 233 234 235 235 236 236 235 234 231 230 235 241 245 250 256 262 267 273 281 286 286 285 285 285 286 288 289 291 293 295 295 298 302 306 309 308 308 308 309 312 316 318
250 253 258 262 267 275 278 280 283 281 279 277 277 277 276 274 271 267 264 264 263 262 262 261 261 262 262 262 260 257 253 247 241 238 236 229 224 224 226 228 231 233 234 236 237 238 238 238 237 236 233 231 234 240 243 247 252 257 262 267 272 279 283 283 282 282 283 284 286 288 289 290 291 292 296 299 300 301 301 301 303 305 308 312 314
237 241 250 262 277 291 297 298 297 293 290 286 282 280 278 275 271 266 262 262 261 261 263 264 265 265 264 261 256 252 250 245 238 234 232 228 226 226 228 231 234 236 238 239 241 241 242 240 239 237 234 234 238 243 246 250 255 259 262 264 268 275 280 280 278 279 281 282 284 285 286 287 288 290 293 295 294 293 294 295 297 301 304 308 310
189 193 202 238 293 310 319 319 316 312 309 305 300 297 292 286 282 277 272 268 265 263 264 264 265 265 263 259 255 251 250 246 240 234 231 228 228 229 231 233 235 237 240 241 242 244 244 242 241 238 236 237 241 244 248 252 256 258 260 261 264 272 276 277 277 277 278 279 280 282 283 283 285 287 289 289 288 288 290 291 293 296 300 303 306
184 186 191 219 313 332 332 329 325 320 316 312 309 306 302 297 292 287 283 280 276 273 271 269 267 266 263 261 258 254 251 247 242 236 232 229 229 231 233 235 237 239 241 242 243 245 245 243 240 236 236 238 242 245 249 253 256 258 258 259 261 267 272 274 276 275 275 276 277 279 280 280 282 284 284 284 284 285 288 290 291 294 298 300 301
189 186 187 202 240 308 316 317 311 309 307 305 304 304 303 300 297 295 291 288 284 280 277 275 272 270 268 265 262 258 254 249 244 239 234 231 231 232 235 237 238 240 241 242 243 243 243 242 238 235 237 240 244 248 250 252 255 257 255 256 259 263 267 271 273 273 274 276 278 279 279 278 279 281 281 281 283 285 287 289 291 294 295 296 297
198 200 205 214 222 239 259 271 279 285 290 293 296 298 299 300 300 299 297 293 289 285 282 279 276 272 271 269 266 263 259 253 248 242 237 235 234 234 236 238 240 241 242 243 243 242 241 238 234 234 238 242 245 246 248 251 254 254 253 254 257 260 263 268 271 273 274 276 278 278 278 278 278 279 280 280 282 284 286 288 291 293 293 294 295
212 213 218 224 227 235 245 253 262 270 276 283 289 292 295 297 299 299 298 294 292 290 287 284 280 276 274 272 269 267 263 258 254 248 242 239 237 237 237 239 241 242 243 243 243 242 240 235 232 233 237 241 243 245 247 252 253 252 253 255 256 258 261 264 268 271 273 274 275 275 276 276 278 278 279 280 282 284 286 287 289 291 292 293 295
223 225 227 230 232 237 244 250 258 266 271 277 283 288 291 293 295 297 297 294 293 292 289 287 284 281 279 277 275 272 268 263 258 253 247 243 241 240 240 241 241 242 242 243 242 241 239 235 232 234 237 240 243 245 248 251 252 252 255 257 257 257 259 261 265 268 271 271 272 273 274 276 277 279 280 281 283 284 285 287 288 290 291 292 294
229 229 230 234 237 243 249 255 263 272 277 282 288 291 291 293 294 295 296 293 291 290 289 287 285 283 281 280 278 275 271 266 263 259 255 251 248 246 245 244 245 245 245 245 243 242 239 235 233 234 237 239 242 244 248 250 252 254 256 257 257 257 257 260 263 266 269 271 272 274 275 276 277 279 280 282 283 284 284 285 287 288 289 290 292
229 231 234 239 245 251 258 265 272 280 285 289 292 294 294 295 295 295 295 293 291 290 288 287 286 283 279 276 275 273 272 271 271 271 267 261 256 253 251 250 250 250 249 248 245 243 241 238 236 237 239 241 243 246 249 251 252 254 256 257 258 258 257 259 262 264 267 270 272 274 275 276 277 279 279 281 282 283 283 284 285 286 287 288 289
230 233 239 245 250 255 261 269 276 281 287 289 290 292 292 293 293 294 293 292 292 289 288 286 284 281 278 275 273 272 273 274 274 271 268 265 262 259 256 254 253 252 251 249 247 245 244 242 242 243 244 245 247 248 250 251 251 253 256 258 259 258 257 257 259 260 263 268 270 272 274 275 277 277 278 279 280 280 281 281 281 282 283 284 285
234 239 246 252 258 265 270 275 281 284 287 289 290 290 292 292 295 297 297 296 294 290 287 285 283 281 280 278 276 273 272 271 270 268 267 267 266 264 261 259 256 254 252 251 249 247 247 246 246 246 247 247 248 249 250 251 252 254 257 258 259 258 256 255 256 257 260 264 266 268 271 273 275 275 276 277 277 277 277 278 278 279 280 281 281
240 246 254 261 270 278 282 286 291 293 295 298 299 301 303 304 304 304 302 300 299 297 294 291 288 285 284 283 281 278 275 272 271 269 268 267 267 266 265 263 261 258 255 252 251 249 249 249 248 249 248 248 248 248 250 251 253 255 257 258 259 258 256 255 255 257 259 261 263 265 268 270 272 273 273 274 276 276 274 273 274 276 277 279 279
242 248 256 262 270 279 284 288 294 298 303 307 309 311 312 312 311 310 307 303 302 300 299 296 293 290 287 285 283 281 278 276 274 272 270 268 267 266 266 264 263 261 258 256 254 253 252 251 250 250 249 250 250 251 252 254 255 256 258 259 259 258 256 254 255 256 258 260 263 264 266 267 268 270 271 272 273 273 272 271 271 271 273 276 277
246 252 258 266 274 283 290 296 302 306 308 310 310 310 310 309 308 307 306 303 301 299 297 295 294 292 290 287 285 282 278 275 273 272 271 269 267 267 266 265 263 261 259 258 258 257 255 253 252 251 250 251 252 253 253 255 256 256 257 258 257 255 254 253 254 256 257 259 262 264 265 266 266 267 269 270 270 270 270 269 270 270 271 274 274
256 265 278 288 293 300 304 305 307 307 306 307 308 307 307 306 305 305 304 304 303 302 301 300 299 297 295 293 291 288 284 281 278 275 273 272 270 269 267 264 261 258 257 257 258 258 257 256 255 254 253 253 253 253 254 256 257 257 259 260 257 255 255 255 255 257 257 258 260 262 263 264 265 265 266 267 268 269 269 268 269 270 272 274 275
272 284 292 294 297 301 303 304 305 306 307 309 310 309 310 309 309 308 308 307 307 307 307 306 304 303 302 302 299 296 292 289 286 282 278 275 273 270 267 264 263 262 260 260 261 262 262 261 259 258 256 255 253 254 255 258 260 261 262 262 260 257 256 257 257 258 257 257 258 259 261 262 262 263 264 265 265 266 267 267 267 269 271 274 277
286 292 294 296 300 302 302 304 306 306 308 308 308 308 310 309 309 309 309 309 310 310 311 311 310 309 310 309 306 303 299 294 290 285 281 277 273 269 267 266 266 266 265 265 265 265 266 266 265 263 261 259 257 256 256 258 260 261 262 262 261 259 257 258 258 258 256 255 256 257 259 261 261 261 262 263 263 263 264 264 265 268 271 275 278
292 295 296 297 299 299 298 299 300 300 301 302 302 303 304 305 307 309 310 311 313 313 313 314 314 314 314 312 309 307 303 299 294 290 286 283 278 275 273 272 271 271 270 270 270 269 270 271 271 269 267 265 263 261 259 260 261 262 262 262 262 261 259 257 256 255 253 252 253 255 257 258 259 260 261 261 261 261 261 261 263 266 268 273 277
289 293 295 294 295 295 294 294 295 295 297 299 300 301 303 305 307 309 311 313 314 314 314 314 314 314 314 312 309 307 304 301 298 296 292 289 285 282 280 278 277 276 275 274 274 273 273 274 274 272 271 269 268 265 263 261 262 264 264 263 262 261 259 256 254 253 252 252 253 254 255 257 258 259 260 260 259 259 259 259 261 264 266 270 275
295 298 300 299 300 301 299 299 300 300 302 303 305 306 308 310 312 314 315 315 316 316 316 315 315 316 314 312 310 308 304 302 302 301 298 295 292 288 285 283 281 280 279 278 278 277 277 277 276 275 274 273 272 270 267 264 264 265 265 263 261 262 261 258 255 253 252 252 253 253 255 256 257 258 258 258 258 257 257 258 259 262 265 268 272
305 306 307 308 309 308 307 309 310 310 310 310 311 313 315 316 317 317 316 316 315 315 314 314 314 314 314 312 311 309 305 304 304 303 301 298 296 293 290 288 286 284 283 282 281 280 278 278 278 278 278 278 276 274 272 269 267 266 265 264 262 262 261 258 255 253 252 252 252 253 254 255 256 256 256 257 256 255 255 256 257 259 262 264 268
313 312 313 315 315 315 317 318 317 317 316 315 315 317 317 316 315 314 312 311 311 310 309 309 310 310 309 310 309 307 306 305 305 304 302 300 297 295 293 291 288 286 284 283 282 279 278 279 279 279 279 278 278 277 276 275 272 270 268 267 265 263 262 259 256 253 252 251 251 252 253 254 255 255 255 254 254 253 253 254 256 258 259 261 264
314 314 314 315 315 317 318 317 317 316 314 314 315 315 314 312 311 310 309 308 308 308 307 307 308 307 307 307 306 305 304 304 303 302 301 300 298 296 294 292 290 288 285 282 280 278 278 278 278 278 277 278 278 277 277 277 276 274 272 270 268 266 264 261 257 254 252 251 251 251 252 253 253 253 252 252 252 252 252 253 254 256 258 259 260
309 309 310 311 312 313 313 313 313 313 312 312 313 313 312 311 310 309 308 308 307 307 307 307 307 306 305 305 304 303 303 302 302 301 301 300 299 299 297 295 293 291 287 284 281 279 278 276 275 275 276 276 276 276 275 275 276 274 273 272 271 268 264 260 257 255 253 252 251 252 253 253 252 252 251 250 250 251 252 253 254 255 257 258 259
309 310 311 311 311 312 312 312 313 313 313 314 314 313 312 311 309 308 308 308 307 306 306 305 305 304 304 303 303 303 302 302 301 301 300 300 299 299 298 297 296 294 292 289 285 282 279 276 273 272 272 273 273 273 273 273 273 272 271 271 271 269 264 259 257 256 255 253 252 253 253 251 250 250 249 249 249 249 251 252 254 255 257 258 259
312 312 312 312 312 313 313 312 312 313 313 312 311 310 309 308 307 306 306 305 304 304 304 303 302 302 302 302 302 301 301 300 300 299 299 298 297 297 297 296 295 294 294 292 289 284 281 278 275 272 270 270 271 272 272 270 268 267 267 268 268 267 263 257 253 253 252 251 250 251 250 249 247 247 247 247 247 248 249 251 253 255 257 258 259
310 310 310 311 311 311 310 310 310 309 308 307 307 306 305 305 304 304 303 303 302 302 301 301 301 301 300 300 300 299 299 299 298 298 297 297 296 296 296 295 294 293 292 291 290 286 282 279 276 274 272 271 271 271 271 270 266 264 264 264 265 265 260 252 247 246 246 246 246 246 246 246 245 244 244 244 245 247 248 250 252 254 256 257 259
307 307 307 308 307 306 306 306 305 305 305 304 303 303 302 302 301 301 300 300 300 300 300 300 300 299 299 299 299 298 298 298 298 298 297 297 297 297 297 296 295 294 293 292 291 288 284 281 278 275 273 273 271 269 269 268 266 263 263 262 261 261 257 250 245 244 244 243 243 243 243 243 243 242 242 243 244 246 248 250 251 253 255 256 257
304 303 303 303 303 303 303 302 302 302 301 301 300 300 299 299 299 298 298 298 298 298 298 298 298 298 298 298 298 298 299 299 298 299 299 299 299 299 299 298 297 296 295 293 292 290 288 284 281 277 274 272 270 269 267 266 264 263 261 260 258 255 251 246 243 243 243 243 242 242 243 243 243 242 242 243 244 246 248 249 250 252 254 255 256
301 300 300 300 300 300 299 299 299 299 299 298 298 298 298 297 297 297 297 297 297 297 297 297 298 298 298 298 299 299 299 299 300 300 300 300 300 300 300 299 298 297 296 294 293 292 290 287 284 280 277 272 269 266 265 264 263 261 259 257 253 248 242 240 240 242 242 242 242 243 243 243 243 242 243 244 246 247 249 251 251 252 253 253 254
298 298 298 298 297 298 298 298 298 298 298 298 298 298 298 298 298 298 298 298 298 298 298 298 298 299 299 299 299 299 299 300 301 301 301 301 301 300 300 299 298 296 295 294 293 292 290 287 284 281 278 274 269 265 262 261 261 259 257 254 247 240 234 234 237 240 241 241 242 243 243 242 241 241 243 246 247 249 251 252 253 253 253 253 253